Weather History for Garden City, KS

Change the Weather History Date:

Wednesday, May 15, 2013

  Actual Average Record
Temperature  
Mean Temperature 72 °F 63 °F  
Max Temperature 90 °F 76 °F 95 °F (1996)
Min Temperature 54 °F 50 °F 28 °F (1983)
Degree Days  
Heating Degree Days 0 4  
Month to date heating degree days 131 86  
Since 1 July heating degree days 5185 5148  
Cooling Degree Days 7 2  
Month to date cooling degree days 28 22  
Year to date cooling degree days 32 34  
Growing Degree Days 22 (Base 50)    
Moisture  
Dew Point 45 °F    
Average Humidity 47    
Maximum Humidity 78    
Minimum Humidity 16    
Precipitation  
Precipitation 0.00 in 0.09 in 1.61 in (2003)
Month to date precipitation 0.54 1.23  
Year to date precipitation 1.42 5.29  
Sea Level Pressure  
Sea Level Pressure 29.72 in    
Wind  
Wind Speed 12 mph (SSE)    
Max Wind Speed 25 mph    
Max Gust Speed 35 mph    
Visibility 10 miles    
Events      
T = Trace of Precipitation, MM = Missing Value Source: NWS Daily Summary

Daily Weather History Graph

Daily Weather History Graph

Search for Another Location

Airport:

Trip Planner

Search our weather history database for the weather conditions in past years. The results will help you decide how hot, cold, wet, or windy it might be!

Date:

Astronomy

May. 15, 2013 Rise Set
Actual Time 6:32 AM CDT 8:46 PM CDT
Civil Twilight 6:02 AM CDT 9:16 PM CDT
Nautical Twilight 5:26 AM CDT 9:52 PM CDT
Astronomical Twilight 4:47 AM CDT 10:32 PM CDT
Moon 11:08 AM CDT (5/15) 12:34 AM CDT (5/15)
Length of Visible Light 15h 13m
Length of Day
14h 14m
Waxing Crescent, 27% of the Moon is Illuminated
May 15
Waxing Crescent
May 17
First Quarter
May 24
Full
May 31
Last Quarter
Jun 8
New

Hourly Weather History & Observations

Time (CDT) Temp. Dew Point Humidity Pressure Visibility Wind Dir Wind Speed Gust Speed Precip Events Conditions
12:54 AM 66.9 °F 41.0 °F 39% 29.75 in 10.0 mi SSE 10.4 mph - N/A   Clear
1:54 AM 66.0 °F 43.0 °F 43% 29.75 in 10.0 mi South 5.8 mph - N/A   Clear
2:54 AM 60.1 °F 43.0 °F 53% 29.76 in 10.0 mi SW 5.8 mph - N/A   Clear
3:54 AM 61.0 °F 44.1 °F 54% 29.72 in 10.0 mi SSE 8.1 mph - N/A   Clear
4:54 AM 57.9 °F 44.1 °F 60% 29.73 in 10.0 mi SSE 9.2 mph - N/A   Clear
5:54 AM 55.0 °F 44.1 °F 67% 29.73 in 10.0 mi SSE 10.4 mph - N/A   Clear
6:54 AM 55.0 °F 44.1 °F 67% 29.74 in 10.0 mi SSE 8.1 mph - N/A   Clear
7:54 AM 59.0 °F 45.0 °F 60% 29.75 in 10.0 mi South 10.4 mph - N/A   Clear
8:54 AM 64.9 °F 45.0 °F 48% 29.75 in 10.0 mi South 11.5 mph - N/A   Clear
9:54 AM 70.0 °F 45.0 °F 41% 29.75 in 10.0 mi South 5.8 mph - N/A   Clear
10:54 AM 78.1 °F 45.0 °F 31% 29.73 in 10.0 mi SSW 13.8 mph - N/A   Clear
11:54 AM 84.0 °F 44.1 °F 25% 29.70 in 10.0 mi South 12.7 mph - N/A   Clear
12:54 PM 87.1 °F 41.0 °F 20% 29.70 in 10.0 mi SE 16.1 mph 23.0 mph N/A   Clear
1:54 PM 87.1 °F 42.1 °F 21% 29.69 in 10.0 mi SSE 11.5 mph 23.0 mph N/A   Clear
2:54 PM 89.1 °F 39.9 °F 18% 29.70 in 10.0 mi SSE 11.5 mph - N/A   Clear
3:54 PM 89.1 °F 37.9 °F 16% 29.68 in 10.0 mi SSE 15.0 mph 25.3 mph N/A   Clear
4:54 PM 87.1 °F 45.0 °F 23% 29.68 in 10.0 mi SE 20.7 mph 34.5 mph N/A   Clear
5:54 PM 84.9 °F 44.1 °F 24% 29.68 in 10.0 mi SE 19.6 mph - N/A   Clear
6:54 PM 82.9 °F 43.0 °F 24% 29.69 in 10.0 mi SSE 16.1 mph - N/A   Clear
7:54 PM 80.1 °F 43.0 °F 27% 29.70 in 10.0 mi SE 13.8 mph - N/A   Clear
8:54 PM 75.0 °F 46.0 °F 36% 29.71 in 10.0 mi SSE 12.7 mph - N/A   Clear
9:54 PM 69.1 °F 53.1 °F 57% 29.75 in 10.0 mi SE 15.0 mph - N/A   Clear
10:54 PM 64.9 °F 54.0 °F 68% 29.76 in 10.0 mi SE 12.7 mph - N/A   Clear
11:54 PM 63.0 °F 55.0 °F 75% 29.75 in 10.0 mi SE 10.4 mph - N/A   Clear